| time (UTC) | temp F | wind direction | speed knots | gust knots | rain 1hr in | rain 24hr in | rain mn in | humidity % | barometer mb |
| 20260507063037 | 29 | 259 | 0.0 | 0.0 | 0.00 | 0.00 | 0.03 | 74 | 1013.7 |
| 20260507061535 | 29 | 259 | 1.7 | 0.0 | 0.00 | 0.00 | 0.03 | 74 | 1013.5 |
| 20260507060014 | 30 | 256 | 2.6 | 0.0 | 0.00 | 0.00 | 0.03 | 70 | 1013.4 |
| 20260507054513 | 32 | 241 | 2.6 | 0.0 | 0.00 | 0.00 | 0.03 | 63 | 1013.2 |
| 20260507053106 | 33 | 238 | 3.5 | 0.0 | 0.00 | 0.00 | 0.03 | 60 | 1013.1 |
| 20260507051606 | 33 | 286 | 4.3 | 0.0 | 0.00 | 0.00 | 0.03 | 60 | 1013.0 |
| 20260507050043 | 34 | 248 | 5.2 | 0.0 | 0.00 | 0.00 | 0.03 | 59 | 1012.9 |
| 20260507044534 | 34 | 216 | 6.1 | 0.0 | 0.00 | 0.00 | 0.03 | 60 | 1012.9 |
| 20260507043015 | 34 | 217 | 5.2 | 0.0 | 0.00 | 0.00 | 0.03 | 59 | 1012.7 |
| 20260507041523 | 35 | 253 | 6.1 | 0.0 | 0.00 | 0.00 | 0.03 | 60 | 1012.6 |
| 20260507040058 | 35 | 248 | 5.2 | 0.0 | 0.00 | 0.00 | 0.03 | 59 | 1012.6 |
| 20260507034555 | 35 | 259 | 7.8 | 0.0 | 0.00 | 0.00 | 0.03 | 58 | 1012.4 |
| 20260507033036 | 36 | 227 | 8.7 | 0.0 | 0.00 | 0.00 | 0.03 | 57 | 1012.3 |
| 20260507031535 | 37 | 246 | 7.0 | 0.0 | 0.00 | 0.00 | 0.03 | 59 | 1012.1 |
| 20260507030024 | 37 | 205 | 5.2 | 0.0 | 0.00 | 0.00 | 0.03 | 61 | 1012.0 |
| 20260507024519 | 36 | 219 | 7.8 | 0.0 | 0.00 | 0.00 | 0.03 | 62 | 1011.9 |
| 20260507023059 | 37 | 259 | 8.7 | 0.0 | 0.00 | 0.00 | 0.03 | 63 | 1011.8 |
| 20260507021557 | 36 | 238 | 7.0 | 0.0 | 0.00 | 0.00 | 0.03 | 66 | 1011.8 |
| 20260507020111 | 36 | 214 | 8.7 | 0.0 | 0.00 | 0.00 | 0.03 | 66 | 1011.7 |
| 20260507014558 | 35 | 222 | 7.0 | 0.0 | 0.00 | 0.00 | 0.03 | 69 | 1011.6 |
| 20260507013050 | 35 | 223 | 5.2 | 0.0 | 0.00 | 0.00 | 0.03 | 72 | 1011.6 |
| 20260507011550 | 35 | 226 | 9.6 | 0.0 | 0.00 | 0.00 | 0.03 | 69 | 1011.5 |
| 20260507010058 | 35 | 219 | 7.8 | 0.0 | 0.00 | 0.00 | 0.03 | 69 | 1011.5 |
| 20260507004544 | 35 | 256 | 8.7 | 0.0 | 0.00 | 0.00 | 0.03 | 70 | 1011.5 |
| 20260507003025 | 34 | 218 | 7.0 | 0.0 | 0.00 | 0.00 | 0.03 | 73 | 1011.4 |
| 20260507001524 | 35 | 240 | 8.7 | 0.0 | 0.00 | 0.00 | 0.03 | 75 | 1011.4 |
| 20260507000002 | 34 | 229 | 8.7 | 0.0 | 0.00 | 0.00 | 0.03 | 78 | 1011.3 |
| 20260506234601 | 34 | 218 | 7.8 | 0.0 | 0.00 | 0.00 | 0.03 | 82 | 1011.4 |
| 20260506233040 | 33 | 250 | 7.8 | 0.0 | 0.00 | 0.00 | 0.03 | 87 | 1011.3 |
| 20260506231600 | 33 | 253 | 9.6 | 0.0 | 0.00 | 0.00 | 0.03 | 87 | 1011.3 |
| 20260506230025 | 33 | 226 | 8.7 | 0.0 | 0.00 | 0.00 | 0.03 | 91 | 1011.3 |
| 20260506224518 | 32 | 253 | 8.7 | 0.0 | 0.00 | 0.00 | 0.03 | 92 | 1011.2 |
| 20260506223100 | 32 | 232 | 7.8 | 0.0 | 0.00 | 0.00 | 0.03 | 92 | 1011.1 |
| 20260506221624 | 32 | 261 | 8.7 | 0.0 | 0.00 | 0.00 | 0.03 | 93 | 1011.1 |
| 20260506220048 | 32 | 246 | 7.8 | 0.0 | 0.00 | 0.00 | 0.03 | 93 | 1010.9 |
| 20260506214540 | 32 | 259 | 7.8 | 0.0 | 0.00 | 0.00 | 0.03 | 93 | 1010.8 |
| 20260506213019 | 32 | 242 | 7.0 | 0.0 | 0.00 | 0.00 | 0.03 | 92 | 1010.6 |
| 20260506211524 | 32 | 248 | 6.1 | 0.0 | 0.00 | 0.00 | 0.03 | 93 | 1010.5 |
| 20260506210106 | 32 | 254 | 7.8 | 0.0 | 0.00 | 0.00 | 0.03 | 90 | 1010.3 |
| 20260506204606 | 32 | 225 | 6.1 | 0.0 | 0.00 | 0.00 | 0.03 | 94 | 1010.2 |
| 20260506203043 | 31 | 256 | 5.2 | 0.0 | 0.00 | 0.00 | 0.03 | 95 | 1010.1 |
| 20260506201546 | 31 | 277 | 6.1 | 0.0 | 0.00 | 0.00 | 0.03 | 94 | 1010.0 |
| 20260506200040 | 30 | 249 | 7.0 | 0.0 | 0.00 | 0.00 | 0.03 | 94 | 1009.9 |
| 20260506194540 | 31 | 288 | 7.8 | 0.0 | 0.00 | 0.00 | 0.02 | 94 | 1009.7 |
| 20260506193036 | 30 | 234 | 8.7 | 0.0 | 0.00 | 0.00 | 0.02 | 94 | 1009.7 |
| 20260506191534 | 30 | 236 | 7.8 | 0.0 | 0.00 | 0.00 | 0.02 | 95 | 1009.5 |
| 20260506190032 | 31 | 252 | 5.2 | 0.0 | 0.00 | 0.00 | 0.02 | 95 | 1009.4 |
| 20260506184533 | 30 | 263 | 7.8 | 0.0 | 0.00 | 0.00 | 0.02 | 95 | 1009.2 |
| 20260506183028 | 31 | 231 | 6.1 | 0.0 | 0.00 | 0.00 | 0.01 | 95 | 1009.1 |
| 20260506181514 | 31 | 257 | 6.1 | 0.0 | 0.00 | 0.00 | 0.01 | 95 | 1009.0 |
| 20260506180019 | 31 | 235 | 6.1 | 0.0 | 0.00 | 0.00 | 0.01 | 95 | 1008.8 |
| 20260506174521 | 31 | 250 | 6.1 | 0.0 | 0.00 | 0.00 | 0.01 | 95 | 1008.7 |
| 20260506173005 | 30 | 204 | 5.2 | 0.0 | 0.00 | 0.00 | 0.00 | 94 | 1008.5 |
| 20260506171503 | 30 | 254 | 6.1 | 0.0 | 0.00 | 0.00 | 0.24 | 95 | 1008.5 |
| 20260506164559 | 31 | 225 | 7.8 | 0.0 | 0.00 | 0.00 | 0.24 | 94 | 1008.1 |
| 20260506163106 | 31 | 262 | 4.3 | 0.0 | 0.00 | 0.00 | 0.24 | 96 | 1008.0 |
| 20260506161541 | 31 | 247 | 6.1 | 0.0 | 0.00 | 0.00 | 0.24 | 96 | 1007.8 |
| 20260506160044 | 31 | 251 | 5.2 | 0.0 | 0.00 | 0.00 | 0.24 | 96 | 1007.6 |
| 20260506154519 | 31 | 252 | 6.1 | 0.0 | 0.00 | 0.00 | 0.24 | 96 | 1007.6 |
| 20260506153115 | 31 | 244 | 6.1 | 0.0 | 0.00 | 0.00 | 0.24 | 96 | 1007.6 |
| 20260506151558 | 31 | 246 | 6.1 | 0.0 | 0.00 | 0.00 | 0.24 | 96 | 1007.5 |
| 20260506150056 | 31 | 263 | 5.2 | 0.0 | 0.00 | 0.00 | 0.24 | 96 | 1007.3 |
| 20260506144550 | 31 | 262 | 7.0 | 0.0 | 0.00 | 0.00 | 0.23 | 96 | 1007.2 |
| 20260506143034 | 31 | 245 | 7.8 | 0.0 | 0.00 | 0.00 | 0.23 | 96 | 1007.0 |
| 20260506141519 | 31 | 233 | 7.8 | 0.0 | 0.00 | 0.00 | 0.23 | 96 | 1006.9 |
| 20260506140024 | 31 | 254 | 8.7 | 0.0 | 0.00 | 0.00 | 0.23 | 96 | 1006.8 |
| 20260506134513 | 32 | 252 | 6.1 | 0.0 | 0.00 | 0.00 | 0.23 | 96 | 1006.7 |
| 20260506133014 | 32 | 241 | 1.7 | 0.0 | 0.00 | 0.00 | 0.23 | 96 | 1006.5 |
| 20260506131509 | 32 | 246 | 2.6 | 0.0 | 0.00 | 0.00 | 0.22 | 96 | 1006.4 |
| 20260506130008 | 32 | 249 | 2.6 | 0.0 | 0.00 | 0.00 | 0.22 | 96 | 1006.3 |
| 20260506124507 | 32 | 256 | 3.5 | 0.0 | 0.00 | 0.00 | 0.22 | 95 | 1006.1 |
| 20260506123007 | 32 | 262 | 3.5 | 0.0 | 0.00 | 0.00 | 0.21 | 95 | 1006.2 |
| 20260506121556 | 33 | 248 | 5.2 | 0.0 | 0.00 | 0.00 | 0.21 | 95 | 1006.1 |
| 20260506120052 | 33 | 249 | 3.5 | 0.0 | 0.00 | 0.00 | 0.20 | 96 | 1005.9 |
| 20260506114552 | 32 | 242 | 1.7 | 0.0 | 0.00 | 0.00 | 0.20 | 96 | 1005.8 |
| 20260506113045 | 32 | 259 | 0.9 | 0.0 | 0.00 | 0.00 | 0.20 | 95 | 1005.7 |
| 20260506111546 | 32 | 233 | 0.0 | 0.0 | 0.00 | 0.00 | 0.19 | 95 | 1005.6 |
| 20260506110043 | 32 | 239 | 0.9 | 0.0 | 0.00 | 0.00 | 0.19 | 95 | 1005.5 |
| 20260506104544 | 33 | 245 | 2.6 | 0.0 | 0.00 | 0.00 | 0.19 | 94 | 1005.4 |
| 20260506103039 | 34 | 257 | 4.3 | 0.0 | 0.00 | 0.00 | 0.17 | 93 | 1005.2 |
| 20260506101524 | 34 | 233 | 2.6 | 0.0 | 0.00 | 0.00 | 0.16 | 93 | 1005.1 |
| 20260506100024 | 35 | 240 | 6.1 | 0.0 | 0.00 | 0.00 | 0.16 | 92 | 1004.8 |
| 20260506094518 | 35 | 263 | 1.7 | 0.0 | 0.00 | 0.00 | 0.16 | 92 | 1004.7 |
| 20260506093017 | 35 | 242 | 0.9 | 0.0 | 0.00 | 0.00 | 0.16 | 93 | 1004.5 |
| 20260506091520 | 35 | 288 | 0.9 | 0.0 | 0.00 | 0.00 | 0.16 | 92 | 1004.5 |
| 20260506090013 | 35 | 250 | 4.3 | 0.0 | 0.00 | 0.00 | 0.16 | 91 | 1004.4 |
| 20260506084511 | 35 | 252 | 6.1 | 0.0 | 0.00 | 0.00 | 0.15 | 90 | 1004.2 |
| 20260506083009 | 36 | 194 | 3.5 | 0.0 | 0.00 | 0.00 | 0.15 | 90 | 1004.1 |
| 20260506081549 | 36 | 244 | 2.6 | 0.0 | 0.00 | 0.00 | 0.15 | 89 | 1003.9 |
| 20260506073026 | 36 | 223 | 3.5 | 0.0 | 0.00 | 0.00 | 0.15 | 88 | 1003.5 |
| 20260506071506 | 37 | 221 | 1.7 | 0.0 | 0.00 | 0.00 | 0.15 | 88 | 1003.5 |